Regional Weather Roundup
Issued by NWS Jackson, KY

Home | Current Version | Previous Version | Graphics & Text | Print | Product List | Glossary On
Versions: 1 2 3 4 5 6 7 8 9 10 11 12 13 14 15 16 17 18 19 20 21 22 23 24 25 26 27 28 29 30 31 32 33 34 35 36 37 38 39 40 41 42 43 44 45 46 47 48 49 50
000
ASUS43 KJKL 272305
RWRJKL

EAST KENTUCKY HOURLY WEATHER ROUNDUP
NATIONAL WEATHER SERVICE JACKSON KY
600 PM EST THU NOV 27 2014

NOTE: "FAIR" INDICATES FEW OR NO CLOUDS BELOW 12,000 FEET WITH
NO SIGNIFICANT WEATHER AND/OR OBSTRUCTIONS TO VISIBILITY.

* THESE REPORTS ARE NOT UNDER NWS QUALITY CONTROL AND MAY NOT
  REPORT WEATHER SUCH AS PRECIPITATION AND FOG.

KYZ079-080-083-085-087-088-110-112-115-119-120-280000
...EASTERN KENTUCKY...

CITY           SKY/WX    TMP DP  RH WIND       PRES   REMARKS
JACKSON        CLOUDY    30  21  69 VRB5      30.32R WCI  25
LONDON         CLOUDY    31  24  75 W8        30.35R WCI  23
SOMERSET*      CLOUDY    30  25  80 W7        30.40R WCI  23
MONTICELLO*    MIX PCPN  31  25  78 NW7       30.42R WCI  24
HARLAN APT*    CLOUDY    30  23  74 W8        30.32R WCI  23
BLACK MTN*       N/A     18  18 100 NW3         N/A
PIKEVILLE APT* CLOUDY    30  21  69 W9        30.30R WCI  22
BIG SANDY*     CLOUDY    31  25  78 W3        30.31R
MOREHEAD APT*  MIX PCPN  32  23  69 NW10      30.35R WCI  24
$$

KYZ035-036-041-042-044-050-067-078-099-280000
...CENTRAL KENTUCKY...

CITY           SKY/WX    TMP DP  RH WIND       PRES   REMARKS
MT STERLING*   CLOUDY    32  25  74 NW8       30.36R WCI  25
FLEMING/MASON* FLURRIES  29  26  88 W7        30.35R WCI  22
DANVILLE*      CLOUDY    30  23  74 W13G18    30.39R WCI  20
RICHMOND*      CLOUDY    30  25  80 W8        30.35R WCI  23
LEXINGTON      CLOUDY    31  23  72 W8        30.36R WCI  23
FRANKFORT      CLOUDY    31  22  69 W9        30.36R WCI  23
$$

KYZ091>093-OHZ055-061-077-WVZ005-015-034-035-042-280000
...SOUTHERN OHIO/WEST VIRGINIA...

CITY           SKY/WX    TMP DP  RH WIND       PRES   REMARKS
COVINGTON      CLOUDY    31  21  66 W12       30.34R WCI  22
COLUMBUS       CLOUDY    32  24  72 W13       30.26R WCI  22
DAYTON         CLOUDY    30  21  69 W17G25    30.32R WCI  18
WILMINGTON     LGT SNOW  30  23  75 NW10      30.30R WCI  21
HUNTINGTON     CLOUDY    33  21  61 W5        30.30R WCI  29
CHARLESTON     LGT SNOW  31  26  82 W7G18     30.28R WCI  24
PINEVILLE*     LGT SNOW  32  28  83 MISG      30.30R
BECKLEY        LGT SNOW  26  22  84 NW10      30.19R FOG     WCI  16
BLUEFIELD      FLURRIES  28  20  71 NW12G24   30.17R WCI  18
$$

VAZ002-007-008-TNZ017-027-036-066-071-280000
...SOUTHWEST VIRGINIA/EAST TENNESSEE...

CITY           SKY/WX    TMP DP  RH WIND       PRES   REMARKS
WISE*          CLOUDY    28  27  93 NW9G17    30.24R WCI  20
JONESVILLE*    CLOUDY    32  23  69 NW7       30.34R WCI  26
ABINGDON*      FLURRIES  32  28  84 N7G16     30.24R WCI  26
BRISTOL        FLURRIES  33  27  78 W10       30.28R WCI  25
KNOXVILLE      CLOUDY    35  25  66 W8        30.35R WCI  29
OAK RIDGE      CLOUDY    36  25  64 VRB5      30.37R WCI  32
CROSSVILLE     CLOUDY    30  21  69 W7        30.35R WCI  23
NASHVILLE      MOCLDY    32  22  66 N12       30.46R WCI  23
$$

...KEY TO REMARKS...
VSB - VISIBILITY IN MILES
WCI - WIND CHILL INDEX
HX  - HEAT INDEX

$$



USA.gov is the U.S. government's official web portal to all federal, state and local government web resources and services.